CICERO 10 (43690 NORAD) Tracking and Keplerian Element Data

This shows tracking and keplerian element data for the satellite.

Feedback or suggestion? Click here.




ElementValue
Catalog43690
NameCICERO 10
Epoch Orbit1025
Epoch Day17.56752624
Epoch Year2019
RAAN58.6317
Inclination85.0366
Eccentricity0.0017074
Argument of Perigee51.4253
Mean Anonmoly308.8513
Mean Motion15.19356494
Decay Rate7.93E-06
L11 43690U 18088A 19017.56752624 .00000793 00000-0 35492-4 0 9998
L22 43690 85.0366 58.6317 0017074 51.4253 308.8513 15.19356494 10254

Live tracking and technical data element details for CICERO 10 (NORAD 43690). CICERO 10 can be tracked NOW for your location showing map with azimuth and elevation plus other details from your city location.

Track the satellite on the map from your city or location and see movement details for azimuth, elevation, latitude, longitude, range, height, and movement on the map or in text.







IsCatalogInMostPopularTable: catalog: 43690, numindb: 52
Update: records affected: 1



GetName: 43690 CICERO 10

Hit Count: updated at: Fri, 18 Jan 2019 22:30:33 GMT